STARLINK-35359

Last updated on Mon Oct 20 2025 00:02:05 GMT+0000 (Coordinated Universal Time)

1 65670U 25211U 25291.65973120 .00162434 00000+0 29241-2 0 9996 2 65670 97.6028 333.8015 0002275 83.1267 277.0242 15.49215639 5659

Satellite not in orbit

STARLINK-35359